[[{"header":{"parameterUnit":"m.s-1","parameterCategory":1,"la1":30.2992,"la2":30.254,"lo1":-89.0895,"lo2":-89.0443,"dy":0.0025,"dx":0.0025,"nx":19,"ny":19,"refTime":"2026-03-09T09:00:00:Z","depth":0,"parameterNumber":2,"parameterNumberName":"U-component_of_WINDS"},"data":[0,0,0,-2.6886,-2.6886,-2.6864,-2.6864,-2.6846,-2.6846,0,0,0,0,0,0,0,0,0,0,0,-2.6898,-2.6898,-2.6886,-2.6885,-2.6865,-2.6864,-2.6846,-2.6846,0,0,0,0,0,0,0,0,0,0,0,-2.6898,-2.6898,-2.6898,-2.6885,-2.6865,-2.6864,-2.6846,-2.6859,0,0,0,0,0,0,0,0,0,0,-2.6878,-2.6895,-2.6898,-2.6898,-2.6885,-2.6865,-2.6864,-2.6859,-2.6858,-2.686,0,-2.6863,0,-2.6854,-2.6845,-2.6845,0,0,0,-2.6881,-2.6896,-2.6885,-2.6898,-2.6885,-2.6865,-2.6873,-2.6858,-2.6857,-2.6858,-2.6863,-2.6862,-2.6854,-2.6845,-2.6845,-2.6872,-2.6872,0,0,-2.6882,-2.6897,-2.6886,-2.6884,-2.6889,-2.6873,-2.6872,-2.6857,-2.6863,-2.6863,-2.6861,-2.6854,-2.6845,-2.6845,-2.6871,-2.6872,0,0,0,-2.6888,-2.6898,-2.6887,-2.6885,-2.6881,-2.6873,-2.6871,-2.6864,-2.6859,-2.6861,-2.6854,-2.6845,-2.6845,-2.6871,-2.6871,-2.6903,0,0,0,-2.6889,-2.6902,-2.6888,-2.6897,-2.6882,-2.6872,-2.6879,-2.686,-2.6858,-2.6854,-2.6845,-2.6845,-2.687,-2.6871,-2.6901,-2.6914,0,0,0,-2.6897,-2.6903,-2.6902,-2.6898,-2.689,-2.6872,-2.6867,-2.686,-2.6854,-2.6845,-2.6845,-2.687,-2.6871,-2.6899,-2.6912,-2.6925,0,0,0,-2.691,-2.693,-2.6903,-2.6922,-2.689,-2.6893,-2.6866,-2.6867,-2.6864,-2.6845,-2.687,-2.6871,-2.6899,-2.691,-2.6923,-2.6938,-2.6945,0,0,-2.6944,-2.6935,-2.6945,-2.692,-2.6931,-2.6894,-2.691,-2.6892,-2.6877,-2.6874,-2.6874,-2.6901,-2.6912,-2.6924,-2.6986,-2.6993,0,0,0,-2.6961,-2.6968,-2.6967,-2.6965,-2.6953,-2.6942,-2.6921,-2.6914,-2.6911,-2.6879,-2.691,-2.6915,-2.6922,-2.6928,-2.6934,-2.6938,-2.6875,-2.6875,-2.6875,-2.7029,-2.7009,-2.7024,-2.7002,-2.7,-2.6977,-2.6974,-2.6961,-2.6941,-2.6949,-2.6947,-2.6987,-2.6995,-2.6999,-2.7004,-2.6954,-2.6955,-2.6955,-2.6955,-2.7074,-2.7081,-2.7055,-2.706,-2.7039,-2.7043,-2.7022,-2.7008,-2.7008,-2.6987,-2.6992,-2.6969,-2.7007,-2.701,-2.6957,-2.6957,-2.6956,-2.6956,-2.6956,-2.7115,-2.7115,-2.7107,-2.7102,-2.71,-2.7077,-2.7078,-2.7059,-2.7041,-2.7046,-2.7041,-2.7041,-2.7036,-2.7045,-2.7045,-2.7046,-2.7046,-2.7046,-2.7046,-2.7161,-2.7151,-2.7154,-2.7143,-2.7139,-2.7131,-2.7109,-2.7104,-2.7093,-2.7079,-2.7079,-2.7058,-2.7015,-2.7003,-2.7048,-2.7048,-2.7047,-2.7047,-2.7047,-2.7212,-2.7197,-2.7203,-2.7199,-2.7183,-2.7182,-2.7158,-2.715,-2.7143,-2.7144,-2.7122,-2.7094,-2.7083,-2.7078,-2.7068,-2.7127,-2.7127,-2.7127,-2.7127,-2.7245,-2.7238,-2.7239,-2.7234,-2.7227,-2.7206,-2.7211,-2.7195,-2.7175,-2.7169,-2.7158,-2.7144,-2.7141,-2.7131,-2.7126,-2.7116,-2.7186,-2.7186,-2.7186,-2.7275,-2.7266,-2.7275,-2.7256,-2.7243,-2.7232,-2.7236,-2.723,-2.7205,-2.7188,-2.7164,-2.7161,-2.7139,-2.7133,-2.7114,-2.7106,-2.7088,0,0]},{"header":{"parameterUnit":"m.s-1","parameterCategory":1,"la1":30.2992,"la2":30.254,"lo1":-89.0895,"lo2":-89.0443,"dy":0.0025,"dx":0.0025,"nx":19,"ny":19,"refTime":"2026-03-09T09:00:00:Z","depth":0,"parameterNumber":3,"parameterNumberName":"V-component_of_WINDS"},"data":[0,0,0,0.7056,0.7058,0.7172,0.7172,0.7322,0.7323,0,0,0,0,0,0,0,0,0,0,0,0.7019,0.702,0.7055,0.7058,0.7171,0.7172,0.7321,0.7323,0,0,0,0,0,0,0,0,0,0,0,0.7019,0.702,0.7021,0.7058,0.7171,0.7172,0.7321,0.7235,0,0,0,0,0,0,0,0,0,0,0.7125,0.7086,0.7019,0.7021,0.7059,0.7171,0.7172,0.7231,0.7241,0.727,0,0.7292,0,0.7309,0.7333,0.7333,0,0,0,0.7061,0.7078,0.7111,0.7021,0.706,0.7171,0.7121,0.7236,0.7247,0.7283,0.7294,0.7299,0.7312,0.7334,0.7335,0.7489,0.7489,0,0,0.7055,0.7039,0.7104,0.7118,0.7095,0.7118,0.7125,0.7243,0.7255,0.7294,0.7303,0.7314,0.7335,0.7336,0.7488,0.7489,0,0,0,0.7035,0.7034,0.7064,0.7112,0.7132,0.7121,0.7129,0.725,0.7261,0.7305,0.7316,0.7336,0.7337,0.7487,0.7488,0.7501,0,0,0,0.7031,0.7022,0.7061,0.7053,0.7129,0.7191,0.7133,0.7253,0.7267,0.7315,0.7336,0.7339,0.7487,0.7488,0.75,0.7511,0,0,0,0.7013,0.702,0.7035,0.7052,0.7099,0.719,0.7207,0.7256,0.7274,0.7333,0.7339,0.7486,0.7488,0.7498,0.7509,0.7551,0,0,0,0.6989,0.7044,0.7035,0.7102,0.7098,0.7195,0.7207,0.728,0.7333,0.7336,0.7487,0.7488,0.7498,0.7507,0.7549,0.7584,0.7596,0,0,0.705,0.7051,0.7092,0.7087,0.7181,0.7179,0.7277,0.7342,0.7364,0.7447,0.7451,0.75,0.7509,0.755,0.7665,0.7674,0,0,0,0.7107,0.7136,0.7165,0.7213,0.7262,0.7308,0.7359,0.7384,0.7456,0.7401,0.7525,0.7531,0.7556,0.7574,0.7582,0.7608,0.7495,0.7494,0.7494,0.7171,0.7195,0.7267,0.7306,0.7353,0.7407,0.745,0.7494,0.7504,0.7534,0.756,0.7626,0.7646,0.7652,0.7678,0.7578,0.7578,0.7578,0.7578,0.7266,0.7314,0.7328,0.7402,0.743,0.7495,0.7552,0.7558,0.7627,0.7607,0.7631,0.761,0.7662,0.7686,0.7579,0.7579,0.7579,0.7579,0.7578,0.7313,0.7341,0.7369,0.7445,0.7502,0.7541,0.7607,0.7629,0.7652,0.7675,0.7708,0.7708,0.7715,0.7688,0.7689,0.7689,0.7689,0.7689,0.7689,0.7353,0.7384,0.7434,0.7494,0.7531,0.7583,0.7641,0.768,0.7729,0.7742,0.7742,0.7754,0.766,0.7638,0.7693,0.7692,0.7692,0.7692,0.7691,0.7445,0.7429,0.7506,0.7543,0.7619,0.7678,0.7705,0.7784,0.7819,0.7853,0.786,0.7785,0.7789,0.7783,0.7766,0.7851,0.7851,0.7851,0.7851,0.7488,0.7491,0.7579,0.7637,0.7697,0.7732,0.7827,0.7876,0.7924,0.7949,0.794,0.7918,0.791,0.7919,0.791,0.7894,0.801,0.801,0.801,0.7549,0.756,0.7633,0.7676,0.7739,0.7794,0.7886,0.7958,0.801,0.8017,0.7971,0.7965,0.7929,0.7915,0.7923,0.7908,0.788,0,0]}]]